Tracking 19245 objects as of 14-Aug-2018
HD Live streaming from Space Station
objects crossing your sky now

SOLRAD 7B

Track SOLRAD 7B now!
10-day predictions
SOLRAD 7B is classified as:


NORAD ID: 1291
Int'l Code: 1965-016D
Perigee: 902.4 km
Apogee: 937.2 km
Inclination: 70.1 °
Period: 103.3 minutes
Semi major axis: 7290 km
RCS: 0.5012 m2 (medium)
Launch date: March 9, 1965
Source: United States (US)
Launch site: AIR FORCE WESTERN TEST RANGE (AFWTR)
aabbcc
Your satellite tracking list
Your tracking list is empty




NASA's NSSDC Master Catalog

Two Line Element Set (TLE):
1  1291U 65016D   18224.95319074 -.00000050 +00000-0 +17833-5 0  9999
2  1291 070.0774 205.0508 0023864 280.0460 079.7953 13.94568260717260
Source of the keplerian elements: AFSPC